| time (UTC) | temp F | wind direction | speed knots | gust knots | rain 1hr in | rain 24hr in | rain mn in | humidity % | barometer mb |
| 20260505124525 | 74 | 165 | 0.0 | 1.7 | 0.00 | 0.00 | 0.00 | 92 | 1009.5 |
| 20260505123024 | 74 | 337 | 0.0 | 0.9 | 0.00 | 0.00 | 0.00 | 92 | 1009.1 |
| 20260505121521 | 73 | 229 | 0.0 | 1.7 | 0.00 | 0.00 | 0.00 | 92 | 1009.1 |
| 20260505120016 | 73 | 140 | 0.0 | 0.9 | 0.00 | 0.00 | 0.00 | 92 | 1009.4 |
| 20260505114516 | 73 | 233 | 0.0 | 1.7 | 0.00 | 0.00 | 0.00 | 92 | 1009.2 |
| 20260505113015 | 73 | 223 | 0.0 | 0.9 | 0.00 | 0.00 | 0.00 | 92 | 1009.0 |
| 20260505111508 | 73 | 221 | 0.0 | 0.9 | 0.00 | 0.00 | 0.00 | 91 | 1009.3 |
| 20260505101505 | 73 | 174 | 0.0 | 0.9 | 0.00 | 0.00 | 0.00 | 90 | 1009.2 |
| 20260505100004 | 73 | 214 | 0.0 | 0.9 | 0.00 | 0.00 | 0.00 | 90 | 1009.0 |
| 20260505094502 | 73 | 183 | 0.0 | 0.9 | 0.00 | 0.00 | 0.00 | 91 | 1009.2 |
| 20260505093001 | 73 | 212 | 0.0 | 0.9 | 0.00 | 0.00 | 0.00 | 91 | 1009.5 |
| 20260505091600 | 73 | 207 | 0.0 | 0.9 | 0.00 | 0.00 | 0.00 | 90 | 1009.4 |
| 20260505090107 | 73 | 235 | 0.0 | 0.9 | 0.00 | 0.00 | 0.00 | 90 | 1009.5 |
| 20260505084559 | 73 | 212 | 0.0 | 0.9 | 0.00 | 0.00 | 0.00 | 89 | 1009.4 |
| 20260505083102 | 73 | 223 | 0.0 | 2.6 | 0.00 | 0.00 | 0.00 | 89 | 1009.4 |
| 20260505081557 | 73 | 179 | 0.0 | 0.0 | 0.00 | 0.00 | 0.00 | 89 | 1009.6 |
| 20260505080053 | 73 | 205 | 0.0 | 2.6 | 0.00 | 0.00 | 0.00 | 89 | 1009.7 |
| 20260505074545 | 72 | 210 | 0.0 | 0.9 | 0.00 | 0.00 | 0.00 | 89 | 1009.8 |
| 20260505073044 | 72 | 174 | 0.0 | 1.7 | 0.00 | 0.00 | 0.00 | 88 | 1009.9 |
| 20260505071539 | 72 | 200 | 0.0 | 1.7 | 0.00 | 0.00 | 0.00 | 88 | 1010.0 |
| 20260505070037 | 72 | 209 | 0.0 | 0.9 | 0.00 | 0.00 | 0.00 | 89 | 1010.2 |
| 20260505064532 | 71 | 217 | 0.0 | 1.7 | 0.00 | 0.00 | 0.00 | 89 | 1010.4 |
| 20260505063027 | 71 | 212 | 0.0 | 0.9 | 0.00 | 0.00 | 0.00 | 89 | 1010.8 |
| 20260505061524 | 71 | 226 | 0.0 | 0.9 | 0.00 | 0.00 | 0.00 | 88 | 1010.8 |
| 20260505060028 | 71 | 217 | 0.0 | 1.7 | 0.00 | 0.00 | 0.00 | 88 | 1010.8 |
| 20260505054531 | 71 | 214 | 0.0 | 0.9 | 0.00 | 0.00 | 0.00 | 87 | 1010.9 |
| 20260505053016 | 71 | 217 | 0.0 | 0.9 | 0.00 | 0.00 | 0.00 | 87 | 1010.9 |
| 20260505051515 | 71 | 216 | 0.0 | 0.9 | 0.00 | 0.00 | 0.00 | 87 | 1011.0 |
| 20260505041509 | 71 | 229 | 0.0 | 0.9 | 0.00 | 0.00 | 0.00 | 85 | 1011.5 |
| 20260505040009 | 71 | 213 | 0.0 | 0.9 | 0.00 | 0.00 | 0.00 | 84 | 1011.5 |
| 20260505034509 | 72 | 202 | 0.0 | 2.6 | 0.00 | 0.00 | 0.00 | 84 | 1011.7 |
| 20260505033016 | 72 | 216 | 0.0 | 0.9 | 0.00 | 0.00 | 0.00 | 83 | 1011.7 |
| 20260505031507 | 72 | 202 | 0.0 | 0.9 | 0.00 | 0.00 | 0.00 | 82 | 1011.6 |
| 20260505030007 | 72 | 215 | 0.0 | 0.9 | 0.00 | 0.00 | 0.00 | 82 | 1011.7 |
| 20260505024507 | 72 | 218 | 0.0 | 0.9 | 0.00 | 0.00 | 0.00 | 81 | 1011.8 |
| 20260505023006 | 73 | 219 | 0.0 | 0.9 | 0.00 | 0.00 | 0.00 | 81 | 1011.6 |
| 20260505021506 | 73 | 228 | 0.0 | 2.6 | 0.00 | 0.00 | 0.00 | 80 | 1011.6 |
| 20260505020004 | 73 | 207 | 0.0 | 5.2 | 0.00 | 0.00 | 0.00 | 79 | 1011.5 |
| 20260505014509 | 73 | 153 | 0.0 | 1.7 | 0.00 | 0.00 | 0.00 | 79 | 1011.3 |
| 20260505013003 | 73 | 202 | 0.0 | 2.6 | 0.00 | 0.00 | 0.00 | 79 | 1011.3 |
| 20260505011504 | 74 | 153 | 0.0 | 2.6 | 0.00 | 0.00 | 0.00 | 78 | 1011.4 |
| 20260505010003 | 74 | 216 | 0.0 | 2.6 | 0.00 | 0.00 | 0.00 | 77 | 1011.2 |
| 20260505004509 | 75 | 144 | 0.0 | 3.5 | 0.00 | 0.00 | 0.00 | 76 | 1011.1 |
| 20260505003001 | 75 | 223 | 0.0 | 4.3 | 0.00 | 0.00 | 0.00 | 75 | 1011.2 |
| 20260505001600 | 76 | 144 | 0.0 | 1.7 | 0.00 | 0.00 | 0.00 | 74 | 1011.2 |
| 20260504234622 | 77 | 188 | 0.0 | 3.5 | 0.00 | 0.00 | 0.00 | 72 | 1011.3 |
| 20260504233057 | 78 | 148 | 0.0 | 1.7 | 0.00 | 0.00 | 0.00 | 72 | 1011.4 |
| 20260504231556 | 77 | 200 | 0.0 | 5.2 | 0.00 | 0.00 | 0.00 | 72 | 1011.5 |
| 20260504230050 | 77 | 232 | 0.9 | 6.1 | 0.00 | 0.00 | 0.00 | 72 | 1011.8 |
| 20260504224559 | 77 | 139 | 0.0 | 4.3 | 0.00 | 0.00 | 0.00 | 71 | 1011.8 |
| 20260504223047 | 77 | 141 | 0.9 | 4.3 | 0.00 | 0.00 | 0.00 | 72 | 1012.2 |
| 20260504221557 | 77 | 131 | 0.0 | 3.5 | 0.00 | 0.00 | 0.00 | 71 | 1012.4 |
| 20260504220047 | 77 | 205 | 0.0 | 5.2 | 0.00 | 0.00 | 0.00 | 70 | 1012.4 |
| 20260504214550 | 78 | 147 | 0.0 | 3.5 | 0.00 | 0.00 | 0.00 | 69 | 1012.6 |
| 20260504213051 | 79 | 135 | 0.0 | 2.6 | 0.00 | 0.00 | 0.00 | 69 | 1012.6 |
| 20260504211541 | 79 | 218 | 0.0 | 6.1 | 0.00 | 0.00 | 0.00 | 67 | 1012.7 |
| 20260504210049 | 80 | 169 | 0.0 | 4.3 | 0.00 | 0.00 | 0.00 | 66 | 1013.0 |
| 20260504204617 | 80 | 168 | 0.0 | 3.5 | 0.00 | 0.00 | 0.00 | 66 | 1013.0 |
| 20260504203036 | 80 | 150 | 0.9 | 4.3 | 0.00 | 0.00 | 0.00 | 66 | 1013.3 |
| 20260504201532 | 81 | 191 | 0.0 | 4.3 | 0.00 | 0.00 | 0.00 | 64 | 1013.5 |
| 20260504200037 | 80 | 219 | 0.0 | 7.8 | 0.00 | 0.00 | 0.00 | 66 | 1013.5 |
| 20260504194538 | 80 | 18 | 0.0 | 3.5 | 0.00 | 0.00 | 0.00 | 65 | 1013.6 |
| 20260504193028 | 81 | 238 | 0.0 | 4.3 | 0.00 | 0.00 | 0.00 | 64 | 1014.1 |
| 20260504191529 | 81 | 129 | 0.0 | 3.5 | 0.00 | 0.00 | 0.00 | 64 | 1014.2 |
| 20260504190033 | 81 | 230 | 0.9 | 4.3 | 0.00 | 0.00 | 0.00 | 63 | 1014.2 |
| 20260504184525 | 80 | 197 | 0.9 | 5.2 | 0.00 | 0.00 | 0.00 | 64 | 1014.3 |
| 20260504183024 | 80 | 75 | 0.0 | 6.1 | 0.00 | 0.00 | 0.00 | 66 | 1014.3 |
| 20260504181518 | 80 | 187 | 0.0 | 8.7 | 0.00 | 0.00 | 0.00 | 65 | 1014.6 |
| 20260504180018 | 80 | 172 | 0.0 | 5.2 | 0.00 | 0.00 | 0.00 | 65 | 1014.8 |
| 20260504174515 | 79 | 163 | 0.0 | 5.2 | 0.00 | 0.00 | 0.00 | 65 | 1014.8 |
| 20260504173012 | 79 | 154 | 0.0 | 4.3 | 0.00 | 0.00 | 0.00 | 65 | 1015.3 |
| 20260504171532 | 78 | 128 | 0.9 | 7.0 | 0.00 | 0.00 | 0.00 | 64 | 1015.3 |